sat.trackr.live / text

‹ back to catalog

STARLINK-30850

NORAD 58247 · 2023-171T

PAYLOAD ACTIVE UNKNOWN

§ Identity

Operator
Country
US
Launch date
2023-11-08
Launch site
AFETR
Launch vehicle
Mass (kg)
RCS (m²)

Purposes: comms

External: N2YO · Heavens-Above · Gunter

§ Orbital elements

Epoch: 2026-05-24T22:06:16.661088Z

Period
94.27 min
Inclination
43.0031°
Eccentricity
0.0001812
Mean motion
15.27573982 rev/d
Perigee alt
481.8 km
Apogee alt
484.3 km
Semi-major
6,861.2 km
B*
2.1472e-5
RAAN
214.6681°
Arg perigee
267.8148°
Mean anomaly
92.2496°
Rev number
14,139

§ Raw data

STARLINK-308501 58247U 23171T   26144.92102617  .00000328  00000+0  21472-4 0  99972 58247  43.0031 214.6681 0001812 267.8148  92.2496 15.27573982141394

JSON: /api/v1/satellites/58247 · /tle

For live sub-satellite position, see the globe view (requires WebGL).

§ Visibility from observer

Set your observer location to see the next 7 days of passes ≥ 10°. The values pass through the URL so the page stays shareable.

No JS? Fill the form by hand. The geolocation button needs JavaScript.